• In Hungary
  • List of Countries
  • For 7 days
  • Water Temperature
  • Satellite Maps
  • Weather Map
  • News
  • Weather Widgets
  • user-avatar
    Login

    Hourly Weather Elabuga

    Today, 23 January, Tuesday

    Time Temperature Precipitation Wind Pressure Humidity
    00:00 -14°C° 0.1 mm 4 mps 760 mmHg 93%
    01:00 -14°C° 0.3 mm 4 mps 760 mmHg 93%
    02:00 -14°C° 0.3 mm 4 mps 761 mmHg 93%
    03:00 -13°C° 0 mm 3 mps 761 mmHg 94%
    04:00 -14°C° 0.4 mm 4 mps 761 mmHg 93%
    05:00 -14°C° 0.4 mm 4 mps 761 mmHg 92%
    06:00 -14°C° 0.4 mm 5 mps 761 mmHg 92%
    07:00 -14°C° 0.2 mm 5 mps 761 mmHg 90%
    08:00 -14°C° 0.2 mm 5 mps 761 mmHg 88%
    09:00 -14°C° 0.2 mm 5 mps 761 mmHg 86%
    10:00 -13°C° 0.1 mm 5 mps 761 mmHg 85%
    11:00 -14°C° 0.1 mm 6 mps 761 mmHg 83%
    12:00 -14°C° 0.1 mm 6 mps 761 mmHg 82%
    13:00 -14°C° 0 mm 6 mps 761 mmHg 81%
    14:00 -13°C° 0 mm 5 mps 760 mmHg 81%
    15:00 -13°C° 0 mm 5 mps 760 mmHg 80%
    16:00 -13°C° 0 mm 5 mps 760 mmHg 80%
    17:00 -14°C° 0 mm 5 mps 760 mmHg 81%
    18:00 -14°C° 0 mm 4 mps 760 mmHg 81%
    19:00 -14°C° 0.1 mm 5 mps 760 mmHg 83%
    20:00 -15°C° 0.1 mm 5 mps 760 mmHg 84%
    21:00 -15°C° 0.1 mm 5 mps 760 mmHg 85%
    22:00 -15°C° 0.5 mm 5 mps 760 mmHg 87%
    23:00 -15°C° 0.5 mm 5 mps 760 mmHg 90%

    Tomorrow, 24 January, Wednesday

    Time Temperature Precipitation Wind Pressure Humidity
    00:00 -16°C° 0.5 mm 6 mps 760 mmHg 92%
    01:00 -16°C° 0.6 mm 6 mps 760 mmHg 92%
    02:00 -15°C° 0.6 mm 5 mps 761 mmHg 93%
    03:00 -15°C° 0.6 mm 5 mps 761 mmHg 93%
    04:00 -15°C° 0.5 mm 5 mps 761 mmHg 93%
    05:00 -17°C° 0.5 mm 5 mps 761 mmHg 93%
    06:00 -17°C° 0.5 mm 5 mps 761 mmHg 94%
    07:00 -17°C° 0.5 mm 5 mps 761 mmHg 94%
    08:00 -17°C° 0.5 mm 5 mps 762 mmHg 94%
    09:00 -16°C° 0.5 mm 4 mps 762 mmHg 94%
    10:00 -16°C° 0.5 mm 4 mps 762 mmHg 93%
    11:00 -15°C° 0.5 mm 4 mps 762 mmHg 93%
    12:00 -15°C° 0.5 mm 4 mps 763 mmHg 93%
    13:00 -15°C° 0.4 mm 4 mps 763 mmHg 93%
    14:00 -15°C° 0.4 mm 4 mps 763 mmHg 93%
    15:00 -15°C° 0.4 mm 4 mps 763 mmHg 92%
    16:00 -14°C° 0.3 mm 3 mps 763 mmHg 93%
    17:00 -14°C° 0.3 mm 3 mps 763 mmHg 93%
    18:00 -14°C° 0.3 mm 3 mps 763 mmHg 94%
    19:00 -14°C° 0.1 mm 3 mps 764 mmHg 94%
    20:00 -15°C° 0.1 mm 3 mps 764 mmHg 94%
    21:00 -14°C° 0.1 mm 2 mps 764 mmHg 93%
    22:00 -14°C° 0.1 mm 2 mps 764 mmHg 93%
    23:00 -15°C° 0.1 mm 3 mps 765 mmHg 93%

    Day after tomorrow, 25 January, Thursday

    Time Temperature Precipitation Wind Pressure Humidity
    00:00 -15°C° 0.1 mm 3 mps 765 mmHg 93%
    01:00 -15°C° 0.2 mm 3 mps 765 mmHg 94%
    02:00 -15°C° 0.2 mm 3 mps 765 mmHg 94%
    03:00 -15°C° 0.2 mm 3 mps 765 mmHg 94%
    04:00 -15°C° 0.2 mm 3 mps 766 mmHg 94%
    05:00 -16°C° 0.2 mm 3 mps 766 mmHg 94%
    06:00 -16°C° 0.2 mm 3 mps 766 mmHg 94%
    07:00 -16°C° 0.1 mm 3 mps 766 mmHg 93%
    08:00 -16°C° 0.1 mm 3 mps 767 mmHg 93%
    09:00 -16°C° 0.1 mm 3 mps 767 mmHg 93%
    10:00 -16°C° 0.1 mm 3 mps 767 mmHg 92%
    11:00 -16°C° 0.1 mm 3 mps 767 mmHg 91%
    12:00 -15°C° 0.1 mm 3 mps 768 mmHg 90%
    13:00 -16°C° 0.1 mm 3 mps 768 mmHg 91%
    14:00 -15°C° 0.1 mm 2 mps 768 mmHg 91%
    15:00 -15°C° 0.1 mm 2 mps 768 mmHg 92%
    16:00 -15°C° 0 mm 2 mps 768 mmHg 92%
    17:00 -16°C° 0 mm 2 mps 769 mmHg 93%
    18:00 -16°C° 0 mm 2 mps 769 mmHg 94%
    19:00 -16°C° 0 mm 2 mps 769 mmHg 94%
    20:00 -17°C° 0 mm 2 mps 769 mmHg 94%
    21:00 -17°C° 0 mm 2 mps 769 mmHg 94%
    22:00 -18°C° 0 mm 2 mps 770 mmHg 94%
    23:00 -18°C° 0 mm 2 mps 770 mmHg 94%

    26 January, Friday

    Time Temperature Precipitation Wind Pressure Humidity
    00:00 -18°C° 0 mm 2 mps 770 mmHg 94%
    01:00 -18°C° 0 mm 2 mps 770 mmHg 94%
    02:00 -18°C° 0 mm 2 mps 770 mmHg 94%
    03:00 -18°C° 0 mm 2 mps 771 mmHg 94%
    04:00 -18°C° 0 mm 2 mps 771 mmHg 93%
    05:00 -18°C° 0 mm 2 mps 771 mmHg 93%
    06:00 -18°C° 0 mm 2 mps 771 mmHg 93%
    07:00 -19°C° 0 mm 3 mps 771 mmHg 92%
    08:00 -19°C° 0 mm 3 mps 772 mmHg 91%
    09:00 -19°C° 0 mm 3 mps 772 mmHg 91%
    10:00 -19°C° 0 mm 3 mps 772 mmHg 89%
    11:00 -19°C° 0 mm 4 mps 772 mmHg 88%
    12:00 -18°C° 0 mm 4 mps 772 mmHg 87%
    13:00 -18°C° 0 mm 3 mps 772 mmHg 88%
    14:00 -18°C° 0 mm 3 mps 772 mmHg 88%
    15:00 -18°C° 0 mm 3 mps 772 mmHg 89%
    16:00 -19°C° 0 mm 3 mps 772 mmHg 89%
    17:00 -21°C° 0 mm 3 mps 773 mmHg 89%
    18:00 -22°C° 0 mm 3 mps 773 mmHg 89%
    19:00 -22°C° 0 mm 3 mps 773 mmHg 88%
    20:00 -22°C° 0 mm 3 mps 773 mmHg 88%
    21:00 -23°C° 0 mm 3 mps 773 mmHg 87%
    22:00 -23°C° 0 mm 3 mps 773 mmHg 87%
    23:00 -23°C° 0 mm 3 mps 773 mmHg 86%

    27 January, Saturday

    Time Temperature Precipitation Wind Pressure Humidity
    00:00 -23°C° 0 mm 3 mps 773 mmHg 86%
    01:00 -24°C° 0 mm 3 mps 774 mmHg 86%
    02:00 -24°C° 0 mm 3 mps 774 mmHg 85%
    03:00 -24°C° 0 mm 3 mps 774 mmHg 85%
    04:00 -24°C° 0 mm 3 mps 774 mmHg 85%
    05:00 -24°C° 0 mm 3 mps 774 mmHg 84%
    06:00 -25°C° 0 mm 3 mps 774 mmHg 84%
    07:00 -24°C° 0 mm 3 mps 774 mmHg 83%
    08:00 -24°C° 0 mm 3 mps 774 mmHg 83%
    09:00 -23°C° 0 mm 3 mps 775 mmHg 82%
    10:00 -23°C° 0 mm 4 mps 775 mmHg 81%
    11:00 -22°C° 0 mm 4 mps 775 mmHg 81%
    12:00 -20°C° 0 mm 4 mps 775 mmHg 80%
    13:00 -20°C° 0 mm 4 mps 775 mmHg 81%
    14:00 -20°C° 0 mm 4 mps 774 mmHg 82%
    15:00 -19°C° 0 mm 3 mps 774 mmHg 84%
    16:00 -21°C° 0 mm 3 mps 774 mmHg 84%
    17:00 -22°C° 0 mm 3 mps 774 mmHg 83%
    18:00 -23°C° 0 mm 3 mps 774 mmHg 83%
    19:00 -23°C° 0 mm 3 mps 774 mmHg 83%
    20:00 -24°C° 0 mm 4 mps 774 mmHg 82%
    21:00 -24°C° 0 mm 4 mps 774 mmHg 82%
    22:00 -24°C° 0 mm 4 mps 774 mmHg 82%
    23:00 -24°C° 0 mm 4 mps 774 mmHg 82%

    28 January, Sunday

    Time Temperature Precipitation Wind Pressure Humidity
    00:00 -24°C° 0 mm 4 mps 774 mmHg 81%
    01:00 -24°C° 0 mm 4 mps 774 mmHg 81%
    02:00 -25°C° 0 mm 4 mps 773 mmHg 81%
    03:00 -25°C° 0 mm 4 mps 773 mmHg 82%
    04:00 -25°C° 0 mm 4 mps 773 mmHg 82%
    05:00 -25°C° 0 mm 4 mps 773 mmHg 82%
    06:00 -26°C° 0 mm 4 mps 773 mmHg 82%
    07:00 -25°C° 0 mm 4 mps 772 mmHg 82%
    08:00 -25°C° 0 mm 4 mps 772 mmHg 82%
    09:00 -25°C° 0 mm 4 mps 772 mmHg 81%
    10:00 -24°C° 0 mm 5 mps 772 mmHg 80%
    11:00 -22°C° 0 mm 5 mps 772 mmHg 79%
    12:00 -21°C° 0 mm 5 mps 771 mmHg 77%
    13:00 -21°C° 0 mm 5 mps 771 mmHg 78%
    14:00 -21°C° 0 mm 5 mps 770 mmHg 79%
    15:00 -21°C° 0 mm 5 mps 770 mmHg 79%
    16:00 -21°C° 0 mm 5 mps 770 mmHg 80%
    17:00 -22°C° 0 mm 5 mps 769 mmHg 80%
    18:00 -24°C° 0 mm 5 mps 769 mmHg 80%
    19:00 -24°C° 0 mm 5 mps 768 mmHg 79%
    20:00 -24°C° 0 mm 5 mps 768 mmHg 79%
    21:00 -24°C° 0 mm 5 mps 767 mmHg 78%
    22:00 -24°C° 0 mm 5 mps 767 mmHg 78%
    23:00 -25°C° 0 mm 5 mps 767 mmHg 78%
    Show more